Home   Weather   Tübingen   Past weeks

Flag for Germany Past Weather in Tübingen, Baden-Württemberg, Germany — Yesterday and Last 2 Weeks

Now
39 °F

Passing clouds.


Feels Like: 39 °F
Forecast: 30 / 49 °F
Wind: 1 mph from North

Location: Stuttgart-Echterdingen

Current Time: Dec 9, 2016 at 10:24:13 pm

Latest Report: Dec 9, 2016 at 9:50 pm


Visibility: N/A

Pressure: 30.42 "Hg

Humidity: 81%

Dew Point: 34 °F

Location of TübingenLocation

Past Weather in Tübingen — Graph

°F

Tübingen Temperature Yesterday

Maximum temperature yesterday: 45 °F (at 1:50 pm)
Minimum temperature yesterday: 25 °F (at 4:50 am)
Average temperature yesterday: 32 °F

High & Low Weather Summary for the Past Weeks

 TemperatureHumidityPressure
High46 °F (Nov 27, 11:50 am)100% (Dec 2, 7:50 pm)30.54 "Hg (Dec 2, 7:50 pm)
Low19 °F (Nov 30, 5:20 am)31% (Dec 1, 1:50 pm)29.95 "Hg (Nov 25, 5:20 am)
Average34 °F84%30.29 "Hg
* Reported Nov 24 9:20 pm — Dec 9 9:20 pm, Tübingen, Weather by CustomWeather, © 2016

Note: Actual official high and low records may vary slightly from our data, if they occured in-between our weather recording intervals... More about our weather records

Advertising

Tübingen Weather History for the Previous 24 Hours

Scroll right to see more
 ConditionsComfort  
Time TempWeatherWind HumidityBarometerVisibility
9:20 pm
Fri, Dec 9
41 °FPassing clouds.1 mph76%30.42 "HgN/A
8:50 pm43 °FPassing clouds.2 mph71%30.42 "HgN/A
8:20 pm43 °FPassing clouds.1 mph71%30.42 "HgN/A
7:50 pm43 °FPassing clouds.No wind71%30.42 "HgN/A
7:20 pm43 °FPassing clouds.1 mph76%30.42 "HgN/A
6:50 pm43 °FPassing clouds.1 mph76%30.42 "HgN/A
6:20 pm43 °FPassing clouds.1 mph76%30.45 "HgN/A
5:50 pm43 °FPassing clouds.1 mph71%30.45 "HgN/A
5:20 pm43 °FPassing clouds.1 mph71%30.45 "HgN/A
4:50 pm45 °FPassing clouds.2 mph66%30.45 "HgN/A
4:20 pm43 °FPartly sunny.1 mph71%30.45 "HgN/A
3:50 pm45 °FPartly sunny.1 mph66%30.45 "HgN/A
3:20 pm45 °FPartly sunny.1 mph66%30.45 "HgN/A
2:50 pm45 °FPartly sunny.1 mph71%30.45 "HgN/A
2:20 pm43 °FPartly sunny.1 mph76%30.45 "HgN/A
1:50 pm43 °FPartly sunny.2 mph71%30.45 "HgN/A
1:20 pm41 °FPartly sunny.2 mph76%30.45 "HgN/A
12:50 pm39 °FPartly sunny.2 mph75%30.45 "HgN/A
12:20 pm37 °FBroken clouds.2 mph81%30.45 "HgN/A
11:50 am37 °FBroken clouds.3 mph81%30.45 "HgN/A
11:20 am36 °FPartly sunny.2 mph87%30.48 "HgN/A
10:50 am34 °FBroken clouds.3 mph87%30.48 "HgN/A
10:20 am34 °FPartly sunny.1 mph81%30.48 "HgN/A
9:50 am34 °FSunny.1 mph81%30.48 "Hg10 mi
9:20 am30 °FSunny.1 mph93%30.48 "Hg10 mi
8:50 am28 °FSunny.1 mph86%30.45 "Hg10 mi
8:20 am27 °FSunny.1 mph86%30.45 "Hg10 mi
7:50 am25 °FClear.2 mph93%30.45 "Hg10 mi
7:20 am25 °FClear.2 mph93%30.45 "Hg10 mi
6:50 am27 °FClear.1 mph86%30.45 "Hg10 mi
6:20 am27 °FClear.1 mph93%30.45 "Hg10 mi
5:50 am25 °FClear.1 mph93%30.45 "Hg10 mi
5:20 am27 °FClear.No wind93%30.45 "Hg10 mi
4:50 am27 °FClear.2 mph86%30.45 "Hg10 mi
4:20 am27 °FClear.1 mph93%30.45 "Hg10 mi
3:50 am27 °FClear.1 mph93%30.45 "Hg10 mi
3:20 am27 °FClear.2 mph93%30.45 "Hg10 mi
2:50 am25 °FClear.2 mph86%30.45 "Hg10 mi
2:20 am27 °FClear.2 mph93%30.45 "Hg10 mi
1:50 am28 °FClear.5 mph93%30.45 "Hg10 mi
1:20 am27 °FClear.2 mph93%30.45 "Hg10 mi
12:50 am27 °FPassing clouds.5 mph93%30.45 "HgN/A
12:20 am30 °FClear.1 mph93%30.48 "Hg10 mi
11:50 pm
Thu, Dec 8
30 °FPassing clouds.5 mph86%30.48 "HgN/A
11:20 pm30 °FPassing clouds.3 mph86%30.48 "HgN/A
10:50 pm32 °FClear.2 mph80%30.48 "Hg10 mi
10:20 pm30 °FClear.2 mph86%30.45 "Hg10 mi
Weather by CustomWeather, © 2016

See weather overviewHow to use our weather pages